COSMOS 1365

导读

COSMOS 1365是苏联(独联体CIS)“宇宙”系列卫星,于1982年5月14日08:00发射入轨。“宇宙”系列是苏联/俄罗斯规模最大、用途最广的卫星家族,涵盖科学试验、民用技术与军事任务,从1962年持续发展至今,发射总量近2500颗。作为冷战时期产物,该卫星大概率服务于空间技术验证或军事侦察需求,是苏联航天体系稳步推进的典型代表,体现了当时苏联在近地轨道空间开发与国防航天领域的技术积累。

Basic Information
目录编号:
13175
目录名称:
COSMOS 1365
国际标识:
1982-043A
轨道中心:
EARTH
卫星名称:
COSMOS 1365
卫星全名:
--
卫星状态:
在轨 (已飞行16105 天)
发射日期:
1982-05-14 UTC
国别 :
俄罗斯(独联体) (CIS)
星等 :
--
Orbit Information
数据来源 国际轨道数据 AOE轨道数据
星历时间 2026-06-17T04:40:48+0800
16小时前
查看轨道信息
2026-06-17T02:00:00+0800
18小时前
查看轨道信息
半长轴 7307.528km 7307.527km
偏心率 0.0046661 0.0046822
轨道倾角 65.067° 65.067°
近地点辐角 31.909° 31.866°
升交点赤经 206.183° 206.473°
平近点角 139.971° 301.344°
近地点 895.293km 895.174km
远地点 963.489km 963.606km
周期 103.613分钟 103.613分钟
每日圈数 13.897832 13.897835
Detailed Information
使用方式:
暂无
2D Orbit Map
3D Orbit Map
Orbit Altitude Analysis Chart
Orbit Inclination Analysis Chart
Orbit Comprehensive Analysis Chart
View Comprehensive Chart